sat.trackr.live / text

‹ back to catalog

STARLINK-31210

NORAD 59033 · 2024-038L

PAYLOAD ACTIVE UNKNOWN

§ Identity

Operator
Country
US
Launch date
2024-02-25
Launch site
AFETR
Launch vehicle
Mass (kg)
RCS (m²)

Purposes: comms

External: N2YO · Heavens-Above · Gunter

§ Orbital elements

Epoch: 2026-09-20T07:42:24.457824Z

Period
94.27 min
Inclination
43.0067°
Eccentricity
0.0001724
Mean motion
15.27574165 rev/d
Perigee alt
481.9 km
Apogee alt
484.2 km
Semi-major
6,861.2 km
B*
-3.9589e-6
RAAN
4.4744°
Arg perigee
285.3571°
Mean anomaly
74.7090°
Rev number
14,462

§ Raw data

STARLINK-312101 59033U 24038L   26263.32111641 -.00000371  00000+0 -39589-5 0  99962 59033  43.0067   4.4744 0001724 285.3571  74.7090 15.27574165144627

JSON: /api/v1/satellites/59033 · /tle

For live sub-satellite position, see the globe view (requires WebGL).

§ Visibility from observer

Set your observer location to see the next 7 days of passes ≥ 10°. The values pass through the URL so the page stays shareable.

No JS? Fill the form by hand. The geolocation button needs JavaScript.